User: anonymous   Login
Location: Dresden
(51.0300°N, 13.7800°E)
Time: 22:57:02
(UTC+02:00)
Language:

NOAA 19 - Orbit

View from above orbital plane
View from above orbital plane
View from above satellite
View from above satellite

Ground track
Ground track

The orbit is defined by the following mean orbital elements,

1 33591U          26103.20895359 +.00000000 +00000-0 +35642-4 0 00001
2 33591  98.9550 174.0275 0013286 210.1927 149.8481 14.13463751    07
Epoch (UTC): 13 April 2026 05:00:53
Eccentricity: 0.0013286
inclination: 98.9550°
perigee height: 838 km
apogee height: 857 km
right ascension of ascending node: 174.0275°
argument of perigee: 210.1927°
revolutions per day: 14.13463751
mean anomaly at epoch: 149.8481°

The dashed part of the orbit path shows where the satellite is in the earth's shadow,  

DLR